Russellville, AR

11:48 AM CDT on August 17, 2019 (GMT -0500)
Russellville Regional

Weather History for KRUE - July, 2019

Change the Weather History Date:

Sunday, July 21, 2019

  Actual Average (KHOT) Record (KHOT)
Temperature  
Mean Temperature 83 °F -  
Max Temperature 95 °F 95 °F 107 °F (1986)
Min Temperature 73 °F 69 °F 59 °F (1970)
Cooling Degree Days 18    
Growing Degree Days 33 (Base 50)    
Moisture  
Dew Point 75 °F    
Average Humidity 78    
Maximum Humidity 100    
Minimum Humidity 49    
Precipitation  
Precipitation 0.00 in - - ()
Sea Level Pressure  
Sea Level Pressure 29.92 in    
Wind  
Wind Speed 1 mph (SSW)    
Max Wind Speed 6 mph    
Max Gust Speed -    
Visibility 9 miles    
Events      
Averages and records for this station are not official NWS values.
T = Trace of Precipitation, MM = Missing Value Source: NWS Daily Summary

Daily Weather History Graph

Daily Weather History Graph

Search for Another Location

Airport or City:

Astronomy

Jul. 21, 2019 Rise Set
Actual Time 6:13 AM CDT 8:24 PM CDT
Civil Twilight 5:44 AM CDT 8:52 PM CDT
Nautical Twilight 5:09 AM CDT 9:27 PM CDT
Astronomical Twilight 4:31 AM CDT 10:05 PM CDT
Moon 11:28 PM CDT (7/21) 10:26 AM CDT (7/21)
Length of Visible Light 15h 08m
Length of Day
14h 11m
Waning Gibbous, 80% of the Moon is Illuminated
Jul 21
Waning Gibbous
Jul 24
Last Quarter
Jul 31
New
Aug 7
First Quarter
Aug 15
Full

Hourly Weather History & Observations

Time (CDT) Temp. Heat Index Dew Point Humidity Pressure Visibility Wind Dir Wind Speed Gust Speed Precip Events Conditions
12:53 AM 75.9 °F - 75.0 °F 97% 29.91 in 10.0 mi Calm Calm - N/A   Clear
1:53 AM 75.0 °F - 75.0 °F 100% 29.93 in 10.0 mi Calm Calm - N/A   Clear
2:53 AM 75.0 °F - 73.9 °F 96% 29.91 in 8.0 mi Calm Calm - N/A   Clear
3:53 AM 73.9 °F - 73.9 °F 100% 29.92 in 8.0 mi South 3.5 mph - N/A   Clear
4:53 AM 73.9 °F - 73.9 °F 100% 29.92 in 6.0 mi Calm Calm - N/A   Clear
5:53 AM 73.0 °F - 73.0 °F 100% 29.93 in 6.0 mi Calm Calm - N/A   Clear
6:53 AM 73.9 °F - 73.9 °F 100% 29.95 in 5.0 mi Calm Calm - N/A   Clear
7:53 AM 79.0 °F - 75.9 °F 90% 29.97 in 10.0 mi Calm Calm - N/A   Clear
8:53 AM 82.9 °F 91.8 °F 77.0 °F 82% 29.96 in 10.0 mi Calm Calm - N/A   Clear
9:53 AM 84.9 °F 94.1 °F 75.9 °F 74% 29.96 in 10.0 mi WSW 5.8 mph - N/A   Clear
10:53 AM 88.0 °F 98.5 °F 75.9 °F 67% 29.96 in 10.0 mi WSW 5.8 mph - N/A   Clear
11:53 AM 89.1 °F 100.2 °F 75.9 °F 65% 29.94 in 10.0 mi Variable 3.5 mph - N/A   Partly Cloudy
12:53 PM 91.0 °F 102.9 °F 75.9 °F 61% 29.93 in 10.0 mi Calm Calm - N/A   Partly Cloudy
1:53 PM 91.0 °F 102.9 °F 75.9 °F 61% 29.92 in 10.0 mi SE 3.5 mph - N/A   Mostly Cloudy
2:53 PM 93.9 °F 104.0 °F 73.9 °F 52% 29.90 in 10.0 mi NE 3.5 mph - N/A   Clear
3:53 PM 93.9 °F 103.4 °F 73.0 °F 51% 29.89 in 10.0 mi Variable 3.5 mph - N/A   Mostly Cloudy
4:53 PM 93.9 °F 102.1 °F 72.0 °F 49% 29.89 in 10.0 mi SW 3.5 mph - N/A   Partly Cloudy
5:53 PM 93.0 °F 100.7 °F 72.0 °F 50% 29.88 in 10.0 mi SSW 3.5 mph - N/A   Clear
6:53 PM 91.9 °F 101.3 °F 73.9 °F 55% 29.88 in 10.0 mi Calm Calm - N/A   Clear
7:53 PM 87.1 °F 99.8 °F 78.1 °F 74% 29.88 in 10.0 mi Calm Calm - N/A   Clear
8:53 PM 82.0 °F 90.2 °F 77.0 °F 85% 29.88 in 10.0 mi Calm Calm - N/A   Clear
9:53 PM 80.1 °F 85.8 °F 77.0 °F 90% 29.88 in 10.0 mi Calm Calm - N/A   Clear
10:53 PM 80.1 °F 85.8 °F 77.0 °F 90% 29.89 in 10.0 mi Calm Calm - N/A   Clear
11:53 PM 78.1 °F - 75.9 °F 93% 29.90 in 10.0 mi Calm Calm - N/A   Clear